www.pogodaiklimat.ru

Погода и климат >> Архив погоды >> Индия >> Джаркханд >> Далтонгандж


ПОГОДА в Далтонгандже

  • Прогноз погоды в Далтонгандже
  • Монитор погоды в Далтонгандже

АРХИВ ПОГОДЫ в Далтонгандже

Время (UTC), дата Ветер
(напр.,м/с)
 
Видим.   Явления Облачность Т
(С)
Тd
(С)
f
(%)
Тe
(С)
Тes
(С)
Комфортность P
(гПа)
Po
(гПа)
Тmin
(С)
Tmax
(С)
R
(мм)
R24
(мм)
S
(см)
00 18.06 штиль 0 2000 м мгла 3/0
[Ac trans]
+28.8 +26.0 85 +43 +43 опасность
перегрева
999.9 975.2 19
03 18.06 штиль 0 2000 м мгла 4/0
[Ac trans]
+32.2 +25.8 69 +47 +58 опасность
перегрева
1000.8 976.3 +26.1 19
06 18.06 З 1 4000 м 4/0
[Ac trans Ci fib]
+36.6 +22.1 43 +45 +65 опасность
перегрева
999.9 975.8
09 18.06 З 1 4000 м 4/1 600 м
[Sc Ac trans]
+39.6 +18.5 29 +43 +55 опасность
перегрева
996.9 973.1
12 18.06 З 1 4000 м 4/1 600 м
[Sc Ac trans]
+39.8 +18.0 28 +43 +44 опасность
перегрева
995.4 971.7 +40.6
15 18.06 штиль 0 4000 м 8/3 600 м
[Sc Ac trans]
+37.0 +20.4 38 +43 +43 опасность
перегрева
997.4 973.4
18 18.06 штиль 0 2000 м мгла 3/0
[Ac trans]
+34.2 +20.9 46 +41 +41 опасность
перегрева
999.8 975.5
21 18.06 штиль 0 2000 м мгла 1/0
[Ac trans]
+32.6 +20.0 47 +39 +39 очень
душно
999.4 975.0
00 19.06 штиль 0 2000 м мгла ясно +30.8 +21.3 57 +39 +39 очень
душно
999.1 974.6
03 19.06 штиль 0 2000 м мгла ясно +34.0 +22.4 51 +43 +58 опасность
перегрева
1000.3 976.0 +30.2
06 19.06 штиль 0 4000 м 4/0
[Ac trans]
+38.4 +20.0 34 +44 +66 опасность
перегрева
999.3 975.4
09 19.06 СВ 1 4000 м 8/4 600 м
[Sc diur, vesp Ac trans]
+39.8 +20.0 32 +45 +51 опасность
перегрева
995.9 972.2
12 19.06 ЮВ 2 2000 м мгла {дождь} 9/4 600 м
[Sc Ac trans]
+28.4 +24.1 78 +40 +40 очень
душно
998.9 974.2 +40.7 4
15 19.06 штиль 0 2000 м мгла 8/3 600 м
[Sc Ac trans]
+29.2 +24.3 75 +41 +41 опасность
перегрева
1000.2 975.5 4
18 19.06 штиль 0 2000 м мгла 8/3 600 м
[Sc Ac trans]
+29.4 +25.1 78 +43 +43 опасность
перегрева
1001.4 976.7 4
21 19.06 штиль 0 2000 м мгла 8/3 600 м
[Sc Ac trans]
+28.8 +24.8 79 +41 +41 опасность
перегрева
1001.2 976.5 4
00 20.06 штиль 0 2000 м мгла 6/3 600 м
[Sc Ac trans]
+28.6 +24.9 80 +41 +41 опасность
перегрева
1000.6 975.9 4
03 20.06 штиль 0 2000 м мгла 6/3 600 м
[Sc Ac trans]
+30.6 +25.2 73 +44 +52 опасность
перегрева
1001.5 976.9 +27.9 4
06 20.06 штиль 0 2000 м мгла 6/0
[Ac trans Ci fib]
+35.2 +23.1 50 +46 +66 опасность
перегрева
1000.5 976.3
09 20.06 В 1 4000 м 4/3 750 м
[Cu hum Ac trans]
+38.4 +20.8 36 +45 +56 опасность
перегрева
997.4 973.5
12 20.06 ЮЗ 2 4000 м 9/4 600 м
[Sc Ac trans]
+38.0 +21.7 39 +46 +46 опасность
перегрева
996.0 972.1 +40.1
15 20.06 штиль 0 2000 м мгла {дождь} 6/3 600 м
[Sc Ac trans]
+31.4 +25.8 72 +46 +46 опасность
перегрева
999.4 974.9 4
18 20.06 штиль 0 2000 м мгла 8/3 600 м
[Sc Ac trans]
+31.2 +24.7 68 +44 +44 опасность
перегрева
1000.6 976.1 4
21 20.06 штиль 0 2000 м мгла 8/3 600 м
[Sc Ac trans]
+30.8 +24.5 69 +43 +43 опасность
перегрева
1000.4 975.8 4
00 21.06 штиль 0 2000 м мгла 5/1 600 м
[Sc Ac trans]
+30.0 +24.3 72 +42 +42 опасность
перегрева
1000.2 975.6 4
03 21.06 штиль 0 2000 м мгла 8/3 600 м
[Sc Ac trans]
+31.2 +24.3 67 +43 +49 опасность
перегрева
1001.9 977.3 +29.5 4
06 21.06 штиль 0 2000 м мгла 8/1 600 м
[Sc Ac trans Ci fib]
+33.6 +24.5 59 +46 +63 опасность
перегрева
1001.1 976.8
09 21.06 СВ 1 4000 м 4/1 750 м
[Cu hum Ac trans]
+36.6 +23.8 48 +48 +60 опасность
перегрева
997.8 973.8
12 21.06 штиль 0 2000 м гроза, ливневой дождь 10/5 600 м
[Sc As op]
+25.0 +24.7 98 +35 +35 очень
душно
998.9 973.9 +38.2 49
15 21.06 штиль 0 2000 м слаб. дождь {гроза} 10/4 600 м
[Sc As op]
+26.2 +25.6 97 +39 +39 очень
душно
1000.8 975.9 59
18 21.06 штиль 0 2000 м мгла {дождь} 10/5 600 м
[Sc Ac trans]
+26.6 +25.5 94 +39 +39 очень
душно
1002.0 977.1 60
21 21.06 штиль 0 2000 м мгла 10/5 600 м
[Sc Ac trans]
+26.4 +25.3 94 +38 +38 очень
душно
1001.7 976.8 60
00 22.06 штиль 0 2000 м мгла 8/4 600 м
[Sc Ac trans]
+26.8 +26.0 95 +40 +40 очень
душно
1000.7 975.8 60
03 22.06 штиль 0 2000 м мгла 9/4 600 м
[Sc Ac trans]
+28.2 +25.9 87 +42 +46 опасность
перегрева
1001.0 976.2 +24.2 60
06 22.06 штиль 0 2000 м слаб. дождь 10/5 600 м
[Sc As op]
+27.0 +26.2 95 +41 +44 опасность
перегрева
1000.8 975.9 24
09 22.06 штиль 0 4000 м мгла {дождь} 9/4 600 м
[Sc Ac trans]
+27.0 +25.9 94 +40 +46 очень
душно
999.6 974.8 26
12 22.06 штиль 0 2000 м мгла 9/4 600 м
[Sc Ac trans]
+27.8 +25.8 89 +41 +42 опасность
перегрева
998.8 974.0 +29.2 26
15 22.06 штиль 0 2000 м мгла 9/4 600 м
[Sc Ac trans]
+27.8 +26.6 93 +43 +43 опасность
перегрева
1000.3 975.5 26
18 22.06 штиль 0 2000 м мгла 8/4 600 м
[Sc Ac trans]
+27.6 +25.9 90 +41 +41 опасность
перегрева
1000.7 975.9 26
21 22.06 штиль 0 2000 м мгла 8/4 600 м
[Sc Ac trans]
+27.2 +25.5 90 +40 +40 очень
душно
1000.2 975.4 26
00 23.06 штиль 0 2000 м мгла 8/4 600 м
[Sc Ac trans]
+27.0 +25.6 92 +40 +40 очень
душно
1000.5 975.6 26
03 23.06 штиль 0 2000 м мгла 8/4 600 м
[Sc Ac trans]
+29.2 +26.7 86 +45 +50 опасность
перегрева
1001.1 976.4 +26.7 26
06 23.06 штиль 0 2000 м мгла 8/4 600 м
[Sc Ac trans]
+32.4 +25.1 65 +46 +57 опасность
перегрева
1000.7 976.3 0.0
09 23.06 штиль 0 4000 м мгла 8/3 750 м
[Sc diur, vesp Ac trans]
+33.4 +24.0 58 +45 +53 опасность
перегрева
999.4 975.1 0.0
12 23.06 СВ 1 4000 м мгла 4/1 600 м
[Sc Ac trans]
+34.4 +23.8 54 +46 +47 опасность
перегрева
998.1 973.9 +35.0 0.0
15 23.06 штиль 0 4000 м мгла ясно +32.0 +24.0 63 +44 +44 опасность
перегрева
1000.5 976.0 0.0
18 23.06 штиль 0 2000 м мгла ясно +30.2 +24.2 70 +42 +42 опасность
перегрева
1001.4 976.8 0.0
21 23.06 штиль 0 2000 м мгла ясно +28.6 +23.7 75 +39 +39 очень
душно
1000.6 975.9 0.0
00 24.06 штиль 0 2000 м мгла ясно +28.2 +25.7 86 +42 +42 опасность
перегрева
1002.5 977.7 0.0
03 24.06 штиль 0 4000 м мгла 4/1 600 м
[Sc Ac trans]
+30.8 +25.4 73 +45 +55 опасность
перегрева
1004.1 979.5 +27.9 0.0
06 24.06 штиль 0 4000 м мгла 8/4 600 м
[Sc Ac trans]
+33.6 +24.2 58 +46 +56 опасность
перегрева
1003.7 979.3
09 24.06 СЗ 1 4000 м мгла 5/3 600 м
[Sc Ac trans]
+35.4 +23.4 50 +46 +56 опасность
перегрева
1001.2 977.0
12 24.06 штиль 0 4000 м мгла 1/1 750 м
[Cu hum]
+35.6 +23.6 50 +46 +48 опасность
перегрева
999.4 975.2 +36.2
15 24.06 штиль 0 4000 м мгла 4/1 600 м
[Sc Ac trans]
+33.2 +26.6 68 +50 +50 опасность
перегрева
1000.5 976.1
18 24.06 штиль 0 2000 м мгла ясно +32.2 +26.1 70 +48 +48 опасность
перегрева
1002.4 977.9

 

Местоположение метеостанции Далтонгандж (Джаркханд, Индия): широта 24.05 долгота 84.07 высота над уровнем моря 221 м.

В архиве по умолчанию представлена погода в Далтонгандже за последнюю неделю. Архивные данные за месяц целиком и за предыдущие месяцы, начиная с января 2011 года, Вы можете получить, выбрав интересующий диапазон дат из раскрывающегося списка и нажав кнопку "Ввод!".


*Определитесь, кто Вы:
робот инопланетянин человек

Внимание! Время в таблицах - всемирное. Для получения местного времени необходимо прибавить поправку, которая равна 5.5 ч.

Смотрите также архив погоды в соседних городах и на ближайших метеорологических станциях:

Погода в Дехри (Бихар, Индия) (97 км)
Погода в Гае (Бихар, Индия) (118 км)
Погода в Амбикапуре (Чхаттисгарх, Индия) (129 км)
Погода в Ранчи (Джаркханд, Индия) (151 км)
Погода в Гхазипуре (Уттар-Прадеш, Индия) (159 км)
Погода в Варанаси (Уттар-Прадеш, Индия) (175 км)
Погода в Варанаси аэропорту (Уттар-Прадеш, Индия) (198 км)
Погода в Патне (Бихар, Индия) (201 км)
Погода в Чхапре (Бихар, Индия) (204 км)
Погода в Сундаргархе (Орисса, Индия) (215 км)

Пояснения к столбцам:

Ветер - указаны скорость ветра в м/с - средняя за 10 мин, порывы в срок и между сроками (в фигурных скобках) и направление, откуда дует ветер: С - северный, СВ - северо-восточный, В - восточный, ЮВ - юго-восточный, Ю - южный, ЮЗ - юго-западный, З - западный, СЗ - северо-западный.
Видимость - горизонтальная дальность видимости в метрах или километрах. При видимости от 1 до 10 км при отсутствии осадков обычно наблюдается дымка, при ухудшении видимости до 1 км и менее - туман. В сухую погоду видимость может ухудшаться дымом, пылью или мглою.
Явления - указаны атмосферные явления, наблюдавшиеся в срок или в последний час перед сроком; фигурными скобками обозначены явления, наблюдавшиеся между сроками (за 1-3 часа до срока); квадратными скобками обозначены град или гололедные отложения с указанием их диаметра в мм.
Облачность - указаны через наклонную черту общая и нижняя облачность в баллах и высота нижней границы облаков в метрах; квадратными скобками обозначены формы облаков: Ci - перистые, Cs - перисто-слоистые, Cc - перисто-кучевые, Ac - высококучевые, As - высокослоистые, Sc - слоисто-кучевые, Ns - слоисто-дождевые, Cu - кучевые, Cb - кучево-дождевые. Подробнее классификацию облаков см. в Атласе облаков (PDF).
T - Температура воздуха - температура, измеренная на высоте 2 м над землей.
Td - Температура точки росы - температура, при понижении до которой содержащийся в воздухе водяной пар достигнет насыщения.
f - Относительная влажность воздуха - влажноcть воздуха, измеренная на высоте 2 м над землей.
Te - Эффективная температура - температура, которую ощущает одетый по сезону человек в тени. Характеристика душности погоды. При расчете учитывается влияние влажности воздуха и скорости ветра на теплоощущения человека.
Tes - Эффективная температура на солнце - температура, которую ощущает человек, с поправкой на солнечный нагрев. Характеристика знойности погоды. Зависит от высоты солнца над горизонтом, облачности и скорости ветра. Ночью, в пасмурную погоду, а также при ветре 12 м/с и более поправка равна нулю.
P - Атмосферное давление - приведенное к уровню моря атмосферное давление.
Po - Атмосферное давление - измеренное на уровне метеостанции атмосферное давление.
Tmin - Минимальная температура - минимум температуры воздуха на высоте 2 м над землей.
Tmax - Максимальная температура - максимум температуры воздуха на высоте 2 м над землей.
R - Количество осадков - Количество выпавших осадков за период времени, мм. При наведении курсора мыши на число - период времени, за который выпало указанное количество осадков.
R24 - Количество осадков - Количество выпавших осадков за 24 часа, мм.
S - Снежный покров - Высота снежного покрова, см. При наведении курсора мыши на число - состояние снежного покрова и степень покрытия местности в баллах.